Overview Statistics Trail Chart Weather Telemetry Raw packets
 

This is the latest recevied weather packets stored in our database for station/object KC0OOO-WX. If no packets are shown the sender has not sent any weather packets the latest 10 day(s).

<< 24 25 26 27 28 29 30 >>
Time Temp. Humidity Pressure Rain* Wind** Luminosity Snow
1777395782 10.56° C 31% 1021.7 hPa 0 mm - - -
1777395182 10.56° C 37% 1021.7 hPa 0 mm - - -
1777394581 10° C 34% 1021.7 hPa 0 mm - - -
1777393982 10° C 38% 1021.7 hPa 0 mm - - -
1777393381 8.89° C 41% 1021.7 hPa 0 mm - - -
1777392751 8.33° C 37% 1021.7 hPa 0 mm - - -
1777392151 7.78° C 39% 1021.6 hPa 0 mm - - -
1777391551 7.22° C 36% 1021.3 hPa 0 mm - - -
1777390951 6.11° C 37% 1021.3 hPa 0 mm - - -
1777390351 6.11° C 39% 1021.3 hPa 0 mm - - -
1777389751 6.11° C 42% 1021.3 hPa 0 mm - - -
1777389151 5.56° C 48% 1021.3 hPa 0 mm - - -
1777388551 5° C 49% 1021.3 hPa 0 mm - - -
1777387921 4.44° C 47% 1021.3 hPa 0 mm - - -
1777387291 3.89° C 53% 1021 hPa 0 mm - - -
1777386661 3.33° C 61% 1020.7 hPa 0 mm - - -
1777386061 2.78° C 66% 1020.7 hPa 0 mm - - -
1777385461 2.22° C 69% 1020.3 hPa 0 mm - - -
1777384861 0.56° C 79% 1020.3 hPa 0 mm - - -
1777384261 -1.11° C 90% 1020 hPa 0 mm - - -
1777383661 -1.67° C 91% 1020 hPa 0 mm - - -
1777383061 -2.78° C 89% 1019.6 hPa 0 mm - - -
1777382431 -2.78° C 89% 1019.6 hPa 0 mm - - -
1777381831 -3.33° C 89% 1019.3 hPa 0 mm - - -
1777381231 -3.89° C 88% 1019.3 hPa 0 mm - - -

* Rain latest hour (hover to see other rain measurements)
** Current wind speed in m/s (hover to see current wind gust speed)